Location: Newark
(40.3500°N, 15.2333°E)
Time: 03:58:29
(UTC+00:00)

DX 1 - Visible Passes

Search period start: 28 February 2020 00:00
Search period end: 09 March 2020 00:00
Orbit: 618 x 632 km, 98.5° (Epoch: 27 February)

Date Brightness Start Highest point End Pass type
(mag) Time Alt. Az. Time Alt. Az. Time Alt. Az.
28 Feb ? 03:36:48 10° S 03:45:35 - NNW 03:37:15 13° S visible
29 Feb ? 02:26:30 13° NNE 02:26:30 13° NNE 02:27:11 10° NNE visible
29 Feb ? 03:55:55 10° SSW 04:03:42 12° NNW 04:04:01 10° NNW visible
29 Feb ? 17:20:47 10° NNW 17:23:59 21° WNW 17:27:12 10° WSW visible
01 Mar ? 02:38:58 10° SE 02:44:23 23° NNE 02:46:30 10° N visible
01 Mar ? 04:15:20 10° SSW 04:21:34 14° NW 04:22:23 10° NW visible
01 Mar ? 17:40:27 10° NNW 17:42:36 14° WNW 17:44:44 10° W visible
02 Mar ? 02:57:17 10° SE 03:01:26 46° ENE 03:05:35 10° N visible
02 Mar ? 04:35:16 10° SW 04:37:48 15° W 04:40:20 10° WNW visible
03 Mar ? 03:15:51 10° SSE 03:20:10 75° ENE 03:24:31 10° N visible
04 Mar ? 02:01:52 10° E 02:03:23 12° ENE 02:04:55 10° NE visible
04 Mar ? 03:34:39 10° S 03:38:58 68° WSW 03:43:18 10° NNW visible
05 Mar ? 02:19:04 10° ESE 02:21:59 18° ENE 02:24:54 10° NNE visible
05 Mar ? 03:53:42 10° S 03:57:48 41° W 04:01:56 10° NNW visible
05 Mar ? 17:18:31 10° NNW 17:21:53 22° WNW 17:25:13 10° WSW visible
06 Mar ? 02:36:58 10° SE 02:40:37 27° ENE 02:44:16 10° N visible
06 Mar ? 04:13:04 10° SSW 04:16:41 26° W 04:20:20 10° NW visible
06 Mar ? 17:38:05 10° NNW 17:40:29 15° WNW 17:42:54 10° W visible
07 Mar ? 02:55:13 10° SE 02:59:18 42° ENE 03:03:24 10° N visible
07 Mar ? 04:32:52 10° SW 04:35:38 16° W 04:38:23 10° NW visible
08 Mar ? 03:13:44 10° SSE 03:18:02 68° ENE 03:22:21 10° N visible
